Location: Unspecified
(48.2082°N, 0.0000°E)
Time: 04:36:57
(UTC+00:00)

S-56A Canister/Altair - Pass Details

Date: 21 June 2019
Orbit: 632 x 2500 km, 38.9° (Epoch: 19 July)

Event Time Altitude Azimuth Distance (km) Brightness Sun altitude
Rises 20:17:27 0° 266° (W) 3,720 11.8 -2.5°
Reaches altitude 10° 20:20:59 10° 251° (WSW) 2,495 10.6 -3.0°
Maximum altitude 20:25:05 21° 204° (SSW) 1,615 9.0 -3.5°
Drops below altitude 10° 20:28:35 10° 155° (SSE) 2,075 9.2 -3.9°
Enters shadow 20:30:01 - 144° (SE) 2,509 9.5 -4.1°
Sets 20:31:13 0° 138° (SE) 2,920 - -4.3°
